OneWeb SL0552

operational
NORAD ID: 56054 Int'l Des: 2023-043 Owner: ONEWEBN Country: UK Constellation: oneweb
LEOCIRCULARPOLARONEWEB_TYPE

关于 OneWeb SL0552

正在加载描述...

实时位置

正在加载3D地球...

即将过境

高度历史

Altitude vs Time

uPlot chart will show altitude changes over time

两行轨道根数

1 56054U 23043J 25257.61125761 .00000057 00000-0 10722-3 0 9999
2 56054 87.9206 298.9856 0001640 92.8896 267.2426 13.21826525121822
Epoch: Sep 14, 2025 • Age: 25 hours

当前状态

高度 1180.5 km
速度 7.26 km/s
星下点 0.76°N, 103.94°W
发射日期 Mar 26, 2023
运行时间 2.4 years
类型 internet

技术详情

分类 Payload
质量 148.00 kg
干质量 140.00 kg
总质量 148.00 kg
长度 1.30 m
直径 1.00 m
跨度 5.00 m
形状 Trapezoid+2 pan
制造商 ONEWUS
平台类型 ARROW
阶段状态 In Orbit
所有者/国家 ONEWEBN/UK

大型星座

Loading constellations...